Weather in Bol'shoe Kozino

Russia / Nizhny Novgorod Oblast'     56°24′13″N   43°42′35″E
temp.,
°C
wind,
m/s
gust,
m/s
humid.,
%
clouds,
%
prec.,
mm/h
press.,
hPa
HPBL,
m
21 april, wed
wed2100:00+6ese81551100 0.0 1019822
03:00+4ese91771100 1.8 1016875
06:00+2se112194100 7.8 10131078
09:00+4se101885100 8.3 1012936
12:00+7se101776100 0.0 10111060
15:00+7sse91683100 0.0 1011915
18:00+7sse81488100 0.1 1011758
21:00+6sse71392100 1.6 1011681
22 april, thu
thu2200:00+4wsw4893100 1.3 1013626
03:00+4ssw4987100 1.3 1015466
06:00+4ssw4887100 0.0 1017405
09:00+7ssw5775100 0.0 1018913
12:00+7ssw568496 0.3 1019815
15:00+9sw466645 0.4 10191053
18:00+9ssw367186 0.0 1020197
21:00+7s378097 0.1 1021178
23 april, fri
fri2300:00+7sse3779100 0.0 1020161
03:00+7sse4117899 0.0 1021302
06:00+7sse41081100 0.0 1021289
09:00+11s6116891 0.0 1021549
12:00+12se476899 0.9 1021603
15:00+16s574677 1.0 10192077
18:00+12se4868100 0.1 1019189
21:00+11se41069100 0.1 1019269
24 april, sat
sat2400:00+10se3876100 0.0 1017168
03:00+9ese4980100 0.0 1016209
06:00+9se5108669 0.1 1015351
09:00+12se8116698 0.4 1014942
12:00+14se795278 0.1 10121918
15:00+15se7847100 0.2 10092025
18:00+12ese81367100 0.0 1007820
21:00+10ese81472100 0.0 1005996
25 april, sun
sun2500:00+5sw71093100 3.7 1004684
03:00+5sw6118255 6.0 1005926
06:00+4sw511855 0.0 1006806
09:00+6sw696847 0.1 10071240
12:00+9sw81049100 0.5 10072231
15:00+8sw81053100 0.8 10081878
18:00+7wsw69645 0.8 10101233
21:00+3ssw22795 0.8 101150